| time (UTC) | temp F | wind direction | speed MPH | gust MPH | rain 1hr in | rain 24hr in | rain mn in | humidity % | barometer mb |
| 20260906060044 | 72 | 34 | 8.0 | 14.0 | 0.00 | 0.00 | 0.00 | 85 | 1017.8 |
| 20260906054544 | 73 | 46 | 7.0 | 13.0 | 0.00 | 0.00 | 0.00 | 85 | 1017.8 |
| 20260906053043 | 73 | 23 | 9.0 | 14.0 | 0.00 | 0.00 | 0.00 | 84 | 1017.8 |
| 20260906051538 | 73 | 61 | 8.0 | 13.0 | 0.00 | 0.00 | 0.00 | 84 | 1017.6 |
| 20260906050051 | 74 | 53 | 7.0 | 13.0 | 0.00 | 0.00 | 0.00 | 85 | 1017.6 |
| 20260906044541 | 74 | 58 | 6.0 | 13.0 | 0.00 | 0.00 | 0.00 | 85 | 1017.6 |
| 20260906043039 | 74 | 46 | 8.0 | 15.0 | 0.00 | 0.00 | 0.00 | 85 | 1017.2 |
| 20260906041537 | 74 | 57 | 5.0 | 12.0 | 0.00 | 0.00 | 0.00 | 86 | 1016.8 |
| 20260906040044 | 74 | 48 | 3.0 | 5.0 | 0.00 | 0.00 | 0.00 | 85 | 1016.6 |
| 20260906034540 | 75 | 26 | 4.0 | 7.0 | 0.00 | 0.00 | 0.00 | 85 | 1016.4 |
| 20260906033047 | 75 | 292 | 1.0 | 4.0 | 0.00 | 0.00 | 0.00 | 85 | 1016.5 |
| 20260906031538 | 75 | 0 | 0.0 | 3.0 | 0.00 | 0.00 | 0.00 | 84 | 1016.5 |
| 20260906030047 | 75 | 69 | 1.0 | 4.0 | 0.00 | 0.00 | 0.00 | 85 | 1016.1 |
| 20260906024546 | 75 | 84 | 2.0 | 4.0 | 0.00 | 0.00 | 0.00 | 85 | 1016.0 |
| 20260906023049 | 75 | 74 | 2.0 | 5.0 | 0.00 | 0.00 | 0.00 | 85 | 1015.6 |
| 20260906021538 | 75 | 78 | 3.0 | 5.0 | 0.00 | 0.00 | 0.00 | 84 | 1015.8 |
| 20260906020051 | 75 | 78 | 3.0 | 7.0 | 0.00 | 0.00 | 0.00 | 84 | 1015.3 |
| 20260906014542 | 75 | 96 | 3.0 | 9.0 | 0.00 | 0.00 | 0.00 | 84 | 1015.4 |
| 20260906013049 | 76 | 71 | 4.0 | 8.0 | 0.00 | 0.00 | 0.00 | 83 | 1015.1 |
| 20260906011557 | 76 | 43 | 5.0 | 11.0 | 0.00 | 0.00 | 0.00 | 83 | 1015.1 |
| 20260906010043 | 77 | 42 | 3.0 | 9.0 | 0.00 | 0.00 | 0.00 | 83 | 1015.4 |
| 20260906004540 | 77 | 38 | 3.0 | 12.0 | 0.00 | 0.00 | 0.00 | 82 | 1015.3 |
| 20260906003038 | 78 | 28 | 6.0 | 12.0 | 0.00 | 0.00 | 0.00 | 80 | 1015.4 |
| 20260906001540 | 79 | 31 | 6.0 | 13.0 | 0.00 | 0.00 | 0.00 | 80 | 1015.5 |
| 20260906000050 | 80 | 69 | 6.0 | 16.0 | 0.00 | 0.00 | 0.00 | 78 | 1015.1 |
| 20260905234538 | 82 | 46 | 6.0 | 20.0 | 0.00 | 0.00 | 0.00 | 77 | 1014.9 |
| 20260905233040 | 82 | 291 | 8.0 | 16.0 | 0.00 | 0.00 | 0.00 | 77 | 1014.9 |
| 20260905231540 | 83 | 43 | 7.0 | 15.0 | 0.00 | 0.00 | 0.00 | 77 | 1014.9 |
| 20260905230039 | 83 | 46 | 8.0 | 16.0 | 0.00 | 0.00 | 0.00 | 77 | 1015.0 |
| 20260905224548 | 84 | 15 | 11.0 | 16.0 | 0.00 | 0.00 | 0.00 | 77 | 1014.8 |
| 20260905223042 | 84 | 38 | 9.0 | 18.0 | 0.00 | 0.00 | 0.00 | 77 | 1014.6 |
| 20260905221538 | 85 | 9 | 9.0 | 16.0 | 0.00 | 0.00 | 0.00 | 76 | 1014.6 |
| 20260905220038 | 85 | 16 | 10.0 | 17.0 | 0.00 | 0.00 | 0.00 | 74 | 1014.6 |
| 20260905214542 | 86 | 24 | 9.0 | 15.0 | 0.00 | 0.00 | 0.00 | 74 | 1014.5 |
| 20260905213040 | 86 | 11 | 8.0 | 16.0 | 0.00 | 0.00 | 0.00 | 74 | 1014.4 |
| 20260905211549 | 87 | 32 | 7.0 | 16.0 | 0.00 | 0.00 | 0.00 | 74 | 1014.1 |
| 20260905210039 | 88 | 42 | 9.0 | 18.0 | 0.00 | 0.00 | 0.00 | 74 | 1014.1 |
| 20260905204544 | 89 | 30 | 6.0 | 15.0 | 0.00 | 0.00 | 0.00 | 72 | 1014.1 |
| 20260905203040 | 89 | 290 | 10.0 | 15.0 | 0.00 | 0.00 | 0.00 | 71 | 1014.3 |
| 20260905201540 | 90 | 52 | 8.0 | 15.0 | 0.00 | 0.00 | 0.00 | 70 | 1014.5 |
| 20260905200042 | 91 | 277 | 4.0 | 12.0 | 0.00 | 0.00 | 0.00 | 68 | 1014.3 |
| 20260905194541 | 91 | 13 | 6.0 | 12.0 | 0.00 | 0.00 | 0.00 | 67 | 1014.5 |
| 20260905193037 | 90 | 17 | 4.0 | 9.0 | 0.00 | 0.00 | 0.00 | 67 | 1014.6 |
| 20260905191541 | 90 | 16 | 5.0 | 11.0 | 0.00 | 0.00 | 0.00 | 68 | 1014.7 |
| 20260905190039 | 91 | 5 | 4.0 | 10.0 | 0.00 | 0.00 | 0.00 | 66 | 1014.8 |
| 20260905184604 | 90 | 36 | 5.0 | 9.0 | 0.00 | 0.00 | 0.00 | 68 | 1015.0 |
| 20260905183048 | 90 | 44 | 3.0 | 10.0 | 0.00 | 0.00 | 0.00 | 68 | 1014.9 |
| 20260905181547 | 89 | 51 | 5.0 | 13.0 | 0.00 | 0.00 | 0.00 | 69 | 1015.0 |
| 20260905180045 | 89 | 11 | 6.0 | 10.0 | 0.00 | 0.00 | 0.00 | 67 | 1015.0 |
| 20260905174541 | 90 | 67 | 6.0 | 12.0 | 0.00 | 0.00 | 0.00 | 68 | 1015.2 |
| 20260905173038 | 89 | 21 | 5.0 | 15.0 | 0.00 | 0.00 | 0.00 | 68 | 1015.1 |
| 20260905171542 | 90 | 27 | 6.0 | 12.0 | 0.00 | 0.00 | 0.00 | 67 | 1015.3 |
| 20260905170040 | 88 | 42 | 6.0 | 13.0 | 0.00 | 0.00 | 0.00 | 69 | 1015.5 |
| 20260905164542 | 89 | 49 | 6.0 | 11.0 | 0.00 | 0.00 | 0.00 | 68 | 1015.6 |
| 20260905163042 | 88 | 41 | 5.0 | 11.0 | 0.00 | 0.00 | 0.00 | 69 | 1015.4 |
| 20260905161541 | 87 | 75 | 6.0 | 13.0 | 0.00 | 0.00 | 0.00 | 69 | 1015.5 |
| 20260905160042 | 87 | 66 | 8.0 | 14.0 | 0.00 | 0.00 | 0.00 | 71 | 1015.5 |
| 20260905154606 | 87 | 49 | 7.0 | 12.0 | 0.00 | 0.00 | 0.00 | 73 | 1015.4 |
| 20260905153040 | 86 | 61 | 7.0 | 13.0 | 0.00 | 0.00 | 0.00 | 74 | 1015.4 |
| 20260905151538 | 85 | 38 | 5.0 | 11.0 | 0.00 | 0.00 | 0.00 | 75 | 1015.4 |
| 20260905150042 | 85 | 16 | 5.0 | 11.0 | 0.00 | 0.00 | 0.00 | 76 | 1015.2 |
| 20260905144541 | 84 | 73 | 7.0 | 13.0 | 0.00 | 0.00 | 0.00 | 75 | 1015.0 |
| 20260905143042 | 84 | 45 | 7.0 | 13.0 | 0.00 | 0.00 | 0.00 | 76 | 1014.7 |
| 20260905141538 | 83 | 55 | 4.0 | 9.0 | 0.00 | 0.00 | 0.00 | 82 | 1014.5 |
| 20260905140046 | 82 | 61 | 5.0 | 10.0 | 0.00 | 0.00 | 0.00 | 84 | 1014.5 |
| 20260905134539 | 81 | 19 | 5.0 | 9.0 | 0.00 | 0.00 | 0.00 | 85 | 1014.4 |
| 20260905133043 | 80 | 32 | 4.0 | 9.0 | 0.00 | 0.00 | 0.00 | 87 | 1014.2 |
| 20260905131542 | 79 | 69 | 2.0 | 6.0 | 0.00 | 0.00 | 0.00 | 88 | 1014.1 |
| 20260905130046 | 78 | 0 | 2.0 | 4.0 | 0.00 | 0.00 | 0.00 | 89 | 1014.2 |
| 20260905124538 | 77 | 41 | 3.0 | 5.0 | 0.00 | 0.00 | 0.00 | 90 | 1014.3 |
| 20260905123036 | 77 | 24 | 1.0 | 4.0 | 0.00 | 0.00 | 0.00 | 90 | 1014.1 |
| 20260905121540 | 76 | 360 | 2.0 | 4.0 | 0.00 | 0.00 | 0.00 | 91 | 1014.1 |
| 20260905120045 | 76 | 0 | 0.0 | 2.0 | 0.00 | 0.00 | 0.00 | 91 | 1013.6 |
| 20260905114540 | 76 | 265 | 1.0 | 2.0 | 0.00 | 0.00 | 0.00 | 91 | 1013.3 |
| 20260905113047 | 76 | 0 | 0.0 | 2.0 | 0.00 | 0.00 | 0.00 | 90 | 1013.0 |
| 20260905111603 | 76 | 0 | 0.0 | 0.0 | 0.00 | 0.00 | 0.00 | 90 | 1012.9 |
| 20260905110041 | 76 | 0 | 0.0 | 0.0 | 0.00 | 0.00 | 0.00 | 89 | 1013.0 |
| 20260905104537 | 77 | 0 | 0.0 | 0.0 | 0.00 | 0.00 | 0.00 | 89 | 1012.8 |
| 20260905103041 | 77 | 0 | 0.0 | 2.0 | 0.00 | 0.00 | 0.00 | 88 | 1013.1 |
| 20260905101553 | 77 | 265 | 1.0 | 3.0 | 0.00 | 0.00 | 0.00 | 88 | 1012.9 |
| 20260905100048 | 78 | 286 | 1.0 | 3.0 | 0.00 | 0.00 | 0.00 | 87 | 1013.1 |
| 20260905094541 | 78 | 24 | 2.0 | 4.0 | 0.00 | 0.00 | 0.00 | 87 | 1013.1 |
| 20260905093038 | 79 | 0 | 0.0 | 3.0 | 0.00 | 0.00 | 0.00 | 86 | 1013.1 |
| 20260905091542 | 79 | 223 | 1.0 | 3.0 | 0.00 | 0.00 | 0.00 | 87 | 1013.2 |
| 20260905090041 | 79 | 173 | 3.0 | 6.0 | 0.00 | 0.00 | 0.00 | 87 | 1013.0 |
| 20260905084548 | 79 | 180 | 0.0 | 4.0 | 0.00 | 0.00 | 0.00 | 87 | 1013.1 |
| 20260905083040 | 79 | 0 | 0.0 | 0.0 | 0.00 | 0.00 | 0.00 | 86 | 1013.4 |
| 20260905081544 | 80 | 0 | 0.0 | 0.0 | 0.00 | 0.00 | 0.00 | 86 | 1013.4 |
| 20260905080049 | 80 | 0 | 0.0 | 3.0 | 0.00 | 0.00 | 0.00 | 86 | 1013.3 |
| 20260905074545 | 80 | 0 | 0.0 | 2.0 | 0.00 | 0.00 | 0.00 | 86 | 1013.5 |
| 20260905073045 | 80 | 186 | 2.0 | 5.0 | 0.00 | 0.00 | 0.00 | 86 | 1013.4 |
| 20260905071543 | 80 | 0 | 0.0 | 0.0 | 0.00 | 0.00 | 0.00 | 86 | 1013.4 |
| 20260905070044 | 80 | 0 | 0.0 | 0.0 | 0.00 | 0.00 | 0.00 | 86 | 1013.4 |
| 20260905064545 | 80 | 0 | 0.0 | 0.0 | 0.00 | 0.00 | 0.00 | 86 | 1013.5 |
| 20260905063044 | 80 | 0 | 0.0 | 0.0 | 0.00 | 0.00 | 0.00 | 85 | 1013.5 |
| 20260905061543 | 80 | 0 | 0.0 | 0.0 | 0.00 | 0.00 | 0.00 | 85 | 1013.5 |